{"data":{"norad_id":58215,"epoch":"2026-05-25T04:50:13.341120Z","epoch_age_seconds":58374,"freshness":"FRESH","line1":"1 58215U 23170K   26145.20154330  .00000830  00000+0  39696-4 0  9997","line2":"2 58215  43.0024 121.8937 0001442 269.9091  90.1595 15.27579460142006","mean_motion":15.2757946,"eccentricity":0.0001442,"inclination_deg":43.0024,"raan_deg":121.8937,"arg_perigee_deg":269.9091,"mean_anomaly_deg":90.1595,"bstar":3.9696e-5,"rev_number":14200,"period_min":94.266782036988,"perigee_km":482.06132972618,"apogee_km":484.04009626261,"semimajor_km":6861.1877129944,"source":"CELESTRAK","updated_at":"2026-05-25T13:38:18.575947Z"}}